星链-1555 (STARLINK-1555 )

导读

STARLINK-1555是美国于2020年8月7日发射的星链系列卫星,隶属于SpaceX打造的星链卫星互联网项目。星链计划旨在通过大规模低轨卫星组网,为全球提供高速宽带互联网服务,该卫星是星链星座组网进程中的一员,助力构建覆盖全球的卫星通信网络。

基本信息
目录编号:
46032
目录名称:
STARLINK-1555
国际标识:
2020-055F
轨道中心:
EARTH
卫星名称:
星链-1555
卫星全名:
星链-1555 (STARLINK-1555 )
卫星状态:
在轨 (已飞行2228 天)
发射日期:
2020-08-07 UTC
国别 :
美国 (US)
星等 :
--
该卫星已列入 空间交会检测服务 Space Conjunction Data Service (SCDS) ,当前飞行风险评估等级: 无高风险
轨道信息
数据来源 国际轨道数据 AOE轨道数据
星历时间 2026-09-13T06:23:54+0800
14小时前
查看轨道信息
2026-09-10T07:00:00+0800
3天前
查看轨道信息
半长轴 6848.869km 6848.808km
偏心率 0.0001271 0.0001429
轨道倾角 53.161° 53.159°
近地点辐角 74.819° 58.303°
升交点赤经 336.045° 349.897°
平近点角 285.296° 88.612°
近地点 469.861km 469.692km
远地点 471.603km 471.65km
周期 94.013分钟 94.012分钟
每日圈数 15.31703 15.317233
详细信息
固有亮度:
5
最大亮度:
2.5
卫星平台:
Starlink V1.0
覆盖范围:
全球
运营商:
太空探索技术公司
运营商所在国:
美国
制造商(研发单位):
太空探索技术公司
制造商所在国:
美国
使用方式:
暂无
卫星简介
星链(Starlink)计划是由太空探索技术公司(SpaceX)提出的一个巨型低轨卫星互联网星座项目,计划在2019年至2024年间在太空搭建由约1.2万颗卫星组成的“星链”网络,其中1584颗将部署在地球上空550千米处的近地轨道,并从2020年开始工作。该卫星仍在工作。
2D轨道图
3D轨道图
轨道高度分析图
轨道倾角分析图
轨道综合分析图
查看轨道综合分析图
与全量物体交会距离演化趋势
与全量物体交会风险概率演化趋势